Hourly Data Report for August 06, 2021

FLIN FLON
MANITOBA
Current Station Operator: ECCC - MSC

54°41'00.000" N
101°41'00.000" W
303.90 m
5050919
71954
WFO

Download Data

Hourly Data (August 2021)
Hourly Data Report for August 6, 2021
TIME
LST
Temp Definition
°C
Dew Point Definition
°C
Rel Hum Definition
%
Precip. Amount Definition
mm

Wind Dir Definition
10's deg

Wind Spd Definition
km/h
Visibility Definition
km
Stn Press Definition
kPa
Hmdx Definition


Wind Chill Definition


Weather Definition


00:00 17.9 9.9 60 0.0 8 7   97.55     LegendNANA
01:00 17.2 11.5 69 0.0 8 7   97.54     LegendNANA
02:00 17.0 12.5 75 0.0 8 7   97.50     LegendNANA
03:00 16.8 13.4 80 0.0 10 7   97.49     LegendNANA
04:00 16.8 13.6 81 0.0 8 7   97.46     LegendNANA
05:00 15.9 14.3 90 1.8 7 9   97.48     LegendNANA
06:00 16.1 14.7 92 0.6 10 4   97.45     LegendNANA
07:00 16.5 14.9 90 0.0 11 8   97.44     LegendNANA
08:00 17.2 15.3 89 0.0 11 6   97.46     LegendNANA
09:00 19.1 15.3 78 0.0 9 9   97.48     LegendNANA
10:00 19.6 15.4 77 0.0 9 9   97.48     LegendNANA
11:00 19.6 15.5 77 0.0 12 10   97.48     LegendNANA
12:00 19.8 15.9 78 0.0 12 9   97.48     LegendNANA
13:00 20.4 15.7 75 0.0 11 9   97.50 25   LegendNANA
14:00 20.4 16.1 77 0.0 11 11   97.48 25   LegendNANA
15:00 20.9 15.9 73 0.0 13 9   97.48 25   LegendNANA
16:00 20.9 16.0 74 0.0 13 12   97.43 26   LegendNANA
17:00 20.9 16.0 73 0.0 13 12   97.44 26   LegendNANA
18:00 21.0 15.5 71 0.0 12 11   97.41 25   LegendNANA
19:00 20.1 15.7 76 0.0 14 12   97.38 25   LegendNANA
20:00 19.4 16.0 81 0.0 14 13   97.40     LegendNANA
21:00 18.5 15.8 84 0.0 13 14   97.39     LegendNANA
22:00 17.9 15.6 86 0.0 14 11   97.36     LegendNANA
23:00 17.3 15.3 88 0.0 14 9   97.33     LegendNANA

Notes on Data Quality.

Legend

  • E = Estimated
  • M = Missing
  • NA = Not Available*
  • [empty] = Indicates an unobserved value
Date modified: